CZ-6A DEB, 60792

Orbit data source: Space-Track

CZ-6A DEB, 60792 is space debris in LEO originally from a launch on Tue, 06 Aug 2024 UTC launched from the Taiyaun Space Center, China (TSC). Debris objects in space refer to the collection of defunct objects orbiting the Earth. Examples of debris include non-operational satellites, rocket bodies, and fragments generated from explosions, collisions, or faulty payload assembly.

Loading next visibility...
Identifier
60792, 2024-140FT
Orbit
LEO
Country
Flag of CNCN / PRC
Related business
Manufacturer
SAST
Mission
Spacecraft
Bus & Motor
Unknown
Mass
Unknown
Launch date (UTC)
2024-08-06 (2 years ago)
Launch vehicle
Unknown
Launch site
Taiyaun Space Center, China (TSC)
Object type
Payload
Rocket body
Debris
Shape & HBR
Unknown shape, 0.3 m
Radar Cross Section
Medium (>0.1 m² and <1 m²)

Expand to show TLE details & history
Last TLE update: 12 hours ago

TLE from 12 hours ago
0 CZ-6A DEB
1 60792U 24140FT  26171.35475775  .00001957  00000-0  24094-3 0  9999
2 60792  89.0644 273.1426 0173973 172.0294 188.3758 14.72272600 99523
Epoch: 2026-06-20T08:30Z
TLE epoch observation values (Epoch: 2026-06-20T08:30:51.069Z)
Latitude
-0.00002°
Longitude
-123.14077°
Altitude
778.055 km
Speed
7.4 km/s
True Right ascension
18h 12m 34s
True Declination
0° 00' 00"
Sunlit
Object was in full shadow at epoch
Visualization orbit readout
Latitude
Unknown
Longitude
Unknown
Altitude
Unknown
Speed
Unknown
Apparent Right ascension
Unknown
Apparent Declination
Unknown
Sunlit
N/A
Visualization observer readout
Local Sidereal Time
07:19:00
Azimuth
Unknown
Elevation
Unknown
Doppler factor
Unknown
Orbital elements
Apogee altitude
772.98 km
Perigee altitude
528.415 km
Semi-major axis
7,028.834 km
Eccentricity
0.0174
Inclination
89.0644°
RAAN
273.1426°
Arg. of periapsis
172.0294°
True anomaly
188.09153°
Mean anomaly
188.3758°
Eccentric anomaly
188.23306°
Mean motion
3.68314 °/min
Orbital period
97.74 mins
BSTAR
0.00024094
Loading maneuver chart data...
Computing Atmospheric mass density...
Loading historical data...
Loading historical data...
Loading historical data...
Loading historical data...
Loading historical data...
Loading historical data...
Loading historical data...

Documentation

Showing up to 5 results
|